[[{"header":{"parameterUnit":"m.s-1","parameterCategory":2,"la1":30.2991,"la2":30.254,"lo1":-89.0895,"lo2":-89.0444,"dy":0.0017,"dx":0.0017,"nx":28,"ny":28,"refTime":"2025-02-28T03:00:00:Z","depth":"0","parameterNumber":2,"parameterNumberName":"U-component_of_CURRENTS"},"data":[0,0,0,0,0,0,0,0,0,0,0,0,0,0,0,0,0,0,0,0,0,0,0,0,0,0,0,0,0,0,0,0,0,0,0,0,0,0,0,0,0,0,0,0,0,0,0,0,0,0,0,0,0,0,0,0,0,0,0.3287,0.3287,0,0.3217,0.3216,0.3215,0.3141,0.3141,0.314,0.314,0.305,0.3048,0.3046,0,0,0,0,0,0,0,0,0,0,0,0,0,0.3278,0.3278,0.3287,0.3287,0.3287,0.3217,0.3216,0.3215,0.3142,0.3141,0.314,0.314,0.305,0.3048,0.3046,0,0,0,0,0,0,0,0,0,0,0,0,0,0.3247,0.3278,0.3287,0.3246,0.3242,0.3218,0.3216,0.3214,0.3142,0.3141,0.314,0.3139,0.3051,0.3048,0.3045,0.3044,0,0,0.3037,0.3035,0,0,0,0,0,0,0,0,0.3249,0.3247,0.3252,0.3249,0.3244,0.3192,0.318,0.3158,0.3142,0.3174,0.314,0.3139,0.3099,0.3092,0.3074,0.304,0.3036,0.3036,0.3035,0.3033,0.3033,0,0,0,0,0,0,0,0.3252,0.3249,0.3254,0.3252,0.3247,0.3203,0.3198,0.3174,0.3138,0.3171,0.3167,0.3168,0.3096,0.3077,0.3071,0.3035,0.3036,0.3034,0.3032,0.3031,0.3007,0.3008,0,0,0,0,0,0,0.3276,0.3252,0.3257,0.3253,0.3251,0.3205,0.3199,0.3205,0.3138,0.3129,0.3169,0.3165,0.3082,0.3075,0.3068,0.3086,0.3033,0.3031,0.3029,0.3005,0.3007,0.3008,0,0,0,0,0,0,0.3276,0.3277,0.3259,0.3254,0.325,0.3207,0.3214,0.3204,0.3195,0.3137,0.3126,0.3171,0.3081,0.3072,0.3056,0.3081,0.3029,0.3027,0.3004,0.3006,0.3007,0.3107,0,0,0,0,0,0,0.3276,0.3278,0.3299,0.3256,0.3251,0.3271,0.3215,0.3204,0.3199,0.3193,0.3136,0.3126,0.308,0.3061,0.3054,0.3076,0.3025,0.3003,0.3005,0.3007,0.3102,0.3111,0.3119,0,0,0,0,0,0.3276,0.3318,0.33,0.3301,0.3278,0.3274,0.3267,0.3229,0.32,0.3213,0.3164,0.3128,0.3068,0.306,0.3051,0.3073,0.3002,0.3004,0.3007,0.3098,0.311,0.3119,0,0,0,0,0,0,0.3345,0.3314,0.3293,0.3329,0.3312,0.3264,0.3279,0.3245,0.3214,0.3208,0.3141,0.3128,0.3123,0.3088,0.308,0.3071,0.303,0.3031,0.3103,0.3113,0.3122,0.3159,0.3022,0,0,0,0,0,0.3366,0.3378,0.3346,0.3378,0.3374,0.3326,0.3321,0.3294,0.326,0.3245,0.32,0.3156,0.3125,0.3112,0.308,0.3079,0.3108,0.3088,0.3097,0.3104,0.3129,0.3179,0.3196,0.3016,0.3016,0.3016,0,0,0.3404,0.339,0.3399,0.3392,0.3373,0.3373,0.3321,0.3328,0.3322,0.3242,0.3228,0.3188,0.3132,0.3125,0.312,0.3099,0.3181,0.3107,0.3114,0.3135,0.3184,0.3202,0.3218,0.3017,0.3017,0.3017,0,0,0.3472,0.3472,0.3492,0.3481,0.3464,0.3433,0.3442,0.34,0.3379,0.3362,0.3301,0.3282,0.3229,0.3198,0.3173,0.3215,0.3225,0.3203,0.3278,0.3326,0.3343,0.3357,0.3466,0.3489,0.3207,0.3207,0.3207,0,0.3517,0.3532,0.3503,0.3514,0.3513,0.3465,0.3482,0.3458,0.3414,0.3409,0.3375,0.3315,0.3265,0.3261,0.3269,0.3237,0.3291,0.3241,0.3342,0.3356,0.3369,0.3477,0.3501,0.3212,0.3212,0.3211,0.3211,0,0.3577,0.3593,0.3613,0.3598,0.3599,0.3615,0.3575,0.3573,0.3536,0.3505,0.3499,0.3434,0.3404,0.338,0.3334,0.3394,0.3415,0.335,0.3322,0.3394,0.3503,0.3526,0.322,0.3218,0.3216,0.3215,0,0,0.3645,0.3651,0.3654,0.3653,0.3641,0.364,0.3656,0.3648,0.3655,0.3619,0.3636,0.3578,0.3554,0.3527,0.3473,0.3505,0.3644,0.3479,0.3479,0.3604,0.3822,0.3813,0.3838,0.3603,0.3606,0.3609,0.388,0,0.3692,0.3725,0.3718,0.3746,0.3752,0.373,0.3744,0.3735,0.3715,0.3722,0.3682,0.367,0.3606,0.3596,0.3626,0.3614,0.3704,0.3581,0.372,0.3726,0.372,0.3862,0.3676,0.3898,0.3903,0.3907,0.391,0,0.3725,0.3742,0.378,0.3795,0.3799,0.3811,0.3823,0.383,0.3838,0.3831,0.3837,0.3804,0.3836,0.3766,0.3862,0.3792,0.3846,0.3852,0.3861,0.3833,0.376,0.3815,0.3941,0.3792,0.3946,0.3943,0.394,0,0.3733,0.3774,0.3802,0.3807,0.3825,0.3843,0.3852,0.3862,0.3868,0.3906,0.3924,0.3954,0.3961,0.4021,0.4036,0.397,0.4168,0.4065,0.4138,0.414,0.3998,0.3981,0.4001,0.4204,0.4204,0.4203,0.4202,0,0.3751,0.3767,0.3807,0.3812,0.384,0.386,0.3886,0.39,0.394,0.3956,0.3979,0.4004,0.4024,0.4109,0.4135,0.4234,0.4264,0.4214,0.4216,0.4032,0.4015,0.3887,0.3807,0.4213,0.4211,0.4209,0.4207,0,0.3714,0.3755,0.3773,0.3818,0.3831,0.384,0.3879,0.3894,0.3954,0.3986,0.4008,0.4077,0.418,0.4246,0.4353,0.4355,0.4324,0.4484,0.4303,0.4278,0.4147,0.4079,0.4054,0.3946,0.4608,0.4609,0.461,0,0.3683,0.3695,0.3746,0.3751,0.3763,0.3791,0.3802,0.3873,0.3892,0.4008,0.402,0.4159,0.4218,0.4422,0.4463,0.4599,0.4405,0.4503,0.4317,0.4176,0.4103,0.3942,0.3839,0.4202,0.4199,0.4198,0.4196,0,0.3604,0.3632,0.3649,0.3667,0.3684,0.3699,0.3733,0.3765,0.3853,0.3908,0.3995,0.4078,0.4281,0.4305,0.4496,0.4525,0.4252,0.4471,0.4342,0.3832,0.3639,0.3521,0.4037,0.418,0.4182,0.4183,0.4184,0.4184,0.3525,0.3519,0.3548,0.3554,0.3579,0.3586,0.3569,0.3633,0.3677,0.3734,0.3888,0.3949,0.4085,0.4301,0.4342,0.4225,0.4209,0.4052,0.4013,0.3888,0.367,0.4202,0.4313,0.4315,0.4317,0.4319,0.432,0,0.3395,0.341,0.342,0.3429,0.3415,0.3463,0.3489,0.3459,0.3474,0.3594,0.3662,0.3715,0.3784,0.3869,0.386,0.3754,0.36,0.3632,0.3313,0.3256,0.3749,0.361,0.3548,0.3548,0.3548,0.3548,0.3548,0.3549,0.3323,0.3295,0.3312,0.3254,0.3261,0.3194,0.3188,0.317,0.3219,0.3199,0.3196,0.3275,0.3398,0.3477,0.3356,0.329,0.3029,0.2939,0.2954,0.323,0.3262,0.3293,0.3142,0.2983,0.2982,0.2299,0.2293,0.2289]},{"header":{"parameterUnit":"m.s-1","parameterCategory":2,"la1":30.2991,"la2":30.254,"lo1":-89.0895,"lo2":-89.0444,"dy":0.0017,"dx":0.0017,"nx":28,"ny":28,"refTime":"2025-02-28T03:00:00:Z","depth":"0","parameterNumber":3,"parameterNumberName":"V-component_of_CURRENTS"},"data":[0,0,0,0,0,0,0,0,0,0,0,0,0,0,0,0,0,0,0,0,0,0,0,0,0,0,0,0,0,0,0,0,0,0,0,0,0,0,0,0,0,0,0,0,0,0,0,0,0,0,0,0,0,0,0,0,0,0,-0.0279,-0.028,0,-0.0374,-0.0375,-0.0377,-0.0446,-0.0447,-0.0447,-0.0447,-0.0584,-0.0587,-0.059,0,0,0,0,0,0,0,0,0,0,0,0,0,-0.0209,-0.021,-0.0279,-0.028,-0.0281,-0.0374,-0.0375,-0.0377,-0.0446,-0.0447,-0.0447,-0.0447,-0.0583,-0.0586,-0.059,0,0,0,0,0,0,0,0,0,0,0,0,0,-0.0267,-0.021,-0.0279,-0.0325,-0.033,-0.0374,-0.0376,-0.0377,-0.0446,-0.0447,-0.0447,-0.0448,-0.0581,-0.0586,-0.0591,-0.0609,0,0,-0.0606,-0.0608,0,0,0,0,0,0,0,0,-0.0264,-0.027,-0.0317,-0.0322,-0.0327,-0.0397,-0.0401,-0.0456,-0.0446,-0.0404,-0.0447,-0.0448,-0.0523,-0.0533,-0.0552,-0.0615,-0.0621,-0.0606,-0.0609,-0.0611,-0.0613,0,0,0,0,0,0,0,-0.0259,-0.0266,-0.0319,-0.0318,-0.0324,-0.0359,-0.0368,-0.0412,-0.0461,-0.0408,-0.0412,-0.042,-0.0527,-0.0547,-0.0556,-0.0623,-0.0606,-0.061,-0.0613,-0.0615,-0.0699,-0.0699,0,0,0,0,0,0,-0.024,-0.0262,-0.0316,-0.0321,-0.0294,-0.0359,-0.0369,-0.0376,-0.046,-0.0473,-0.0419,-0.0423,-0.0538,-0.055,-0.0561,-0.0564,-0.0611,-0.0616,-0.0619,-0.07,-0.0699,-0.0698,0,0,0,0,0,0,-0.0238,-0.0244,-0.0312,-0.0292,-0.0303,-0.0359,-0.0367,-0.0377,-0.0396,-0.0468,-0.0482,-0.0426,-0.0539,-0.0554,-0.0589,-0.0571,-0.0618,-0.0622,-0.0701,-0.07,-0.0699,-0.0586,0,0,0,0,0,0,-0.0236,-0.0243,-0.0243,-0.0291,-0.0303,-0.0332,-0.0366,-0.0379,-0.0399,-0.0404,-0.0479,-0.0492,-0.0541,-0.0582,-0.0594,-0.0578,-0.0626,-0.0702,-0.07,-0.0699,-0.059,-0.0581,-0.0573,0,0,0,0,0,-0.0233,-0.0235,-0.0243,-0.0249,-0.0302,-0.0332,-0.0341,-0.0385,-0.0398,-0.0404,-0.0447,-0.049,-0.0582,-0.0585,-0.06,-0.0585,-0.0702,-0.0701,-0.0699,-0.0594,-0.0583,-0.0573,0,0,0,0,0,0,-0.022,-0.0243,-0.0253,-0.0266,-0.0291,-0.0343,-0.0354,-0.0376,-0.0415,-0.0418,-0.0484,-0.05,-0.0525,-0.057,-0.0571,-0.0606,-0.0649,-0.065,-0.0564,-0.0554,-0.0545,-0.0518,-0.063,0,0,0,0,0,-0.0211,-0.0211,-0.0242,-0.0253,-0.0259,-0.0301,-0.0318,-0.0342,-0.0381,-0.0399,-0.0446,-0.0494,-0.0531,-0.0553,-0.0598,-0.0616,-0.0631,-0.0617,-0.0608,-0.06,-0.0589,-0.059,-0.0579,-0.0693,-0.0693,-0.0693,0,0,-0.0212,-0.0222,-0.0226,-0.0248,-0.0271,-0.0274,-0.0314,-0.0332,-0.0332,-0.0407,-0.0423,-0.0468,-0.053,-0.0549,-0.0564,-0.0584,-0.0572,-0.0598,-0.0591,-0.0584,-0.0587,-0.0575,-0.0565,-0.0692,-0.0692,-0.0693,0,0,-0.0206,-0.0216,-0.021,-0.0218,-0.0237,-0.0256,-0.0253,-0.0291,-0.0305,-0.0326,-0.0372,-0.0396,-0.0466,-0.0492,-0.0518,-0.0488,-0.0528,-0.0509,-0.0441,-0.0441,-0.0431,-0.0423,-0.0405,-0.0396,-0.0502,-0.0501,-0.0501,0,-0.0206,-0.0198,-0.0216,-0.0207,-0.0207,-0.0238,-0.0228,-0.0245,-0.0288,-0.0288,-0.0319,-0.0382,-0.0435,-0.0439,-0.043,-0.0466,-0.0469,-0.0473,-0.0427,-0.0419,-0.0413,-0.0397,-0.0388,-0.0496,-0.0496,-0.0497,-0.0497,0,-0.019,-0.018,-0.0176,-0.0166,-0.017,-0.0166,-0.0179,-0.018,-0.0198,-0.0215,-0.0225,-0.0285,-0.0322,-0.0337,-0.0379,-0.0354,-0.0371,-0.0414,-0.0446,-0.0394,-0.0381,-0.0374,-0.0488,-0.049,-0.0491,-0.0493,0,0,-0.019,-0.0167,-0.0165,-0.0141,-0.014,-0.0138,-0.0123,-0.0117,-0.0094,-0.0131,-0.0107,-0.0163,-0.019,-0.022,-0.0265,-0.026,-0.0213,-0.0309,-0.0312,-0.0277,-0.0194,-0.0185,-0.0177,-0.0247,-0.0246,-0.0245,-0.0195,0,-0.0168,-0.013,-0.013,-0.009,-0.0064,-0.0072,-0.0053,-0.0048,-0.0053,-0.0037,-0.0072,-0.0083,-0.0147,-0.0159,-0.0161,-0.0207,-0.0193,-0.0221,-0.0263,-0.0264,-0.0251,-0.0169,-0.0165,-0.0119,-0.0189,-0.0188,-0.0187,0,-0.014,-0.0114,-0.007,-0.0024,-0.0015,-0.0001,0.0043,0.0053,0.0068,0.0063,0.0058,0.0024,0.0023,-0.0044,-0.0067,-0.0082,-0.0125,-0.0155,-0.0155,-0.0182,-0.0242,-0.019,-0.0104,-0.0286,-0.0177,-0.0178,-0.0178,0,-0.0101,-0.0065,-0.0021,-0.0008,0.0029,0.0048,0.0062,0.0084,0.0109,0.0127,0.0149,0.0131,0.0124,0.0077,0.001,-0.0029,-0.0001,-0.0074,-0.0097,-0.0097,-0.0119,-0.0123,-0.0203,-0.0077,-0.0077,-0.0077,-0.0077,0,-0.0057,-0.0018,0.0,0.003,0.0085,0.0087,0.0143,0.0156,0.0185,0.024,0.0198,0.024,0.0153,0.0149,0.0071,0.0032,0.0042,-0.0054,-0.0075,-0.0078,-0.0079,-0.0262,-0.0365,-0.0075,-0.0076,-0.0076,-0.0077,0,-0.0006,0.0004,0.0061,0.0097,0.0109,0.0147,0.0189,0.0234,0.0246,0.0319,0.0328,0.0331,0.0339,0.0273,0.0216,0.0119,-0.0012,0.0049,0.0065,0.0046,-0.0167,-0.0263,-0.0333,-0.0404,0.003,0.0031,0.0032,0,0.003,0.0063,0.0111,0.0145,0.0162,0.0208,0.0248,0.0264,0.0317,0.0386,0.0437,0.0462,0.0526,0.0461,0.0317,0.0228,0.0045,0.0114,0.0028,-0.0147,-0.0269,-0.0344,-0.0405,0.005,0.0051,0.0051,0.0051,0,0.0099,0.0109,0.0151,0.0216,0.0259,0.0317,0.0372,0.0425,0.0467,0.0551,0.0657,0.0717,0.0659,0.0605,0.0459,0.0336,-0.0016,0.012,-0.0072,-0.0252,-0.0328,-0.0416,-0.0012,0.0056,0.0056,0.0055,0.0055,0.0055,0.0144,0.0183,0.0228,0.0296,0.0352,0.0433,0.0507,0.0589,0.0706,0.0877,0.0869,0.1043,0.0852,0.0678,0.0455,0.0032,0.0035,-0.0112,-0.0205,-0.0258,-0.0352,0.008,0.0122,0.0122,0.0121,0.0121,0.0121,0,0.0197,0.0239,0.0308,0.039,0.0476,0.0485,0.0604,0.0708,0.089,0.1087,0.1224,0.1283,0.1013,0.0662,0.0118,-0.0221,-0.0385,-0.0429,-0.0564,-0.0607,-0.0228,-0.0257,-0.0283,-0.0283,-0.0283,-0.0283,-0.0283,-0.0283,0.0225,0.0294,0.0332,0.0481,0.0551,0.0685,0.0769,0.0938,0.1115,0.142,0.1603,0.1696,0.1416,0.0337,-0.0421,-0.0606,-0.0884,-0.0907,-0.1038,-0.0834,-0.0813,-0.0794,-0.0847,-0.0997,-0.0998,-0.1386,-0.1391,-0.1394]}],[{"header":{"parameterUnit":"m.s-1","parameterCategory":2,"la1":30.2991,"la2":30.254,"lo1":-89.0895,"lo2":-89.0444,"dy":0.0017,"dx":0.0017,"nx":28,"ny":28,"refTime":"2025-02-28T03:00:00:Z","depth":"2","parameterNumber":2,"parameterNumberName":"U-component_of_CURRENTS"},"data":[0,0,0,0,0,0,0,0,0,0,0,0,0,0,0,0,0,0,0,0,0,0,0,0,0,0,0,0,0,0,0,0,0,0,0,0,0,0,0,0,0,0,0,0,0,0,0,0,0,0,0,0,0,0,0,0,0,0,0.1958,0.1957,0,0.1938,0.1938,0.1938,0.1964,0.1965,0.1965,0.1966,0.2168,0.2172,0.2177,0,0,0,0,0,0,0,0,0,0,0,0,0,0.1907,0.1909,0.1958,0.1957,0.1957,0.1938,0.1938,0.1938,0.1964,0.1965,0.1966,0.1966,0.2166,0.2172,0.2177,0,0,0,0,0,0,0,0,0,0,0,0,0,0.1915,0.1909,0.1958,0.1966,0.1966,0.1938,0.1938,0.1938,0.1964,0.1965,0.1966,0.1967,0.2164,0.2171,0.2178,0.22,0,0,0.22,0.2203,0,0,0,0,0,0,0,0,0.1915,0.1917,0.1965,0.1965,0.1965,0.1952,0.1994,0.2036,0.1964,0.1967,0.1966,0.1967,0.2114,0.2125,0.2119,0.221,0.2218,0.22,0.2204,0.2208,0.221,0,0,0,0,0,0,0,0.1914,0.1917,0.1953,0.1964,0.1964,0.1932,0.1935,0.2,0.2041,0.1967,0.1968,0.1962,0.2116,0.2112,0.2125,0.2221,0.22,0.2206,0.2211,0.2213,0.2435,0.2437,0,0,0,0,0,0,0.1916,0.1918,0.1953,0.1952,0.1939,0.1932,0.1936,0.1958,0.2035,0.2046,0.1961,0.1963,0.21,0.2117,0.2132,0.2277,0.2207,0.2214,0.2218,0.2433,0.2436,0.2437,0,0,0,0,0,0,0.1916,0.1921,0.1954,0.193,0.1932,0.1933,0.1956,0.1957,0.1968,0.2028,0.2043,0.1973,0.2101,0.2123,0.2244,0.2281,0.2217,0.2224,0.2432,0.2434,0.2436,0.2495,0,0,0,0,0,0,0.1915,0.1922,0.1936,0.1932,0.1933,0.1957,0.1954,0.1955,0.196,0.1963,0.2044,0.2062,0.2104,0.2233,0.2251,0.229,0.2229,0.2429,0.2433,0.2436,0.2491,0.2499,0.2506,0,0,0,0,0,0.1914,0.1931,0.1938,0.1941,0.1955,0.1957,0.1956,0.1959,0.196,0.1973,0.2054,0.206,0.2264,0.2242,0.2262,0.2303,0.2428,0.2432,0.2435,0.2487,0.2497,0.2506,0,0,0,0,0,0,0.1906,0.1935,0.1942,0.1966,0.1969,0.1961,0.1968,0.1964,0.2026,0.205,0.2103,0.2129,0.2243,0.2264,0.2237,0.2372,0.2338,0.2345,0.237,0.238,0.2387,0.2384,0.2235,0,0,0,0,0,0.1913,0.1935,0.1952,0.1961,0.1978,0.1974,0.1973,0.198,0.2025,0.2049,0.2104,0.2177,0.2266,0.2318,0.2387,0.2473,0.2487,0.2503,0.2511,0.2517,0.2527,0.2609,0.2626,0.245,0.245,0.2449,0,0,0.1906,0.1921,0.1933,0.196,0.1968,0.199,0.1979,0.1994,0.2029,0.2069,0.2153,0.2214,0.2296,0.2399,0.2448,0.2429,0.2568,0.2522,0.2527,0.2534,0.2615,0.2633,0.2648,0.2452,0.2452,0.2451,0,0,0.1901,0.1932,0.1958,0.1971,0.1993,0.2001,0.201,0.203,0.207,0.216,0.2199,0.2287,0.2403,0.2464,0.2515,0.2602,0.2607,0.2612,0.2656,0.2737,0.2752,0.2766,0.2776,0.279,0.2614,0.2614,0.2615,0,0.1903,0.1927,0.1958,0.1985,0.1993,0.2012,0.2036,0.2082,0.2135,0.2201,0.2206,0.2383,0.2438,0.2573,0.2602,0.2621,0.2648,0.2618,0.2748,0.2762,0.2775,0.2782,0.2797,0.2618,0.2617,0.2617,0.2617,0,0.19,0.1938,0.1953,0.2002,0.2023,0.204,0.2106,0.2159,0.2212,0.2269,0.2417,0.2491,0.2596,0.2616,0.265,0.2763,0.2743,0.275,0.2725,0.2797,0.2799,0.2813,0.2622,0.2621,0.262,0.2619,0,0,0.1874,0.1944,0.1949,0.1983,0.2034,0.2052,0.2146,0.2244,0.2328,0.2416,0.2529,0.2662,0.2698,0.2753,0.2781,0.2842,0.294,0.2839,0.2842,0.2847,0.3083,0.2933,0.2934,0.2985,0.2989,0.2992,0.3035,0,0.1868,0.191,0.1948,0.1999,0.2037,0.2102,0.2183,0.2287,0.2396,0.2518,0.2635,0.2759,0.2755,0.281,0.2877,0.2942,0.2988,0.2925,0.3013,0.3014,0.2874,0.295,0.2761,0.2773,0.3049,0.3051,0.3053,0,0.1859,0.1887,0.1932,0.2027,0.2053,0.2093,0.2229,0.2313,0.2512,0.261,0.2753,0.2841,0.297,0.2939,0.3084,0.3053,0.3072,0.3096,0.3099,0.2952,0.2894,0.2753,0.2789,0.3077,0.3075,0.3074,0.3072,0,0.1818,0.1888,0.1919,0.194,0.2045,0.2106,0.2178,0.2352,0.2462,0.2677,0.2762,0.294,0.3016,0.3111,0.3145,0.3151,0.3258,0.3274,0.3144,0.3131,0.298,0.2948,0.3361,0.3361,0.3361,0.3361,0.3361,0,0.1807,0.1836,0.1906,0.1929,0.1999,0.2088,0.2216,0.2331,0.2508,0.2622,0.2799,0.2882,0.307,0.3144,0.3183,0.3186,0.3293,0.3161,0.3151,0.2987,0.2957,0.3233,0.3217,0.3362,0.3362,0.3362,0.3362,0,0.1781,0.1818,0.1875,0.1966,0.1995,0.2061,0.222,0.2316,0.2476,0.2616,0.2684,0.2887,0.2979,0.308,0.3209,0.32,0.3237,0.3192,0.2943,0.2902,0.305,0.3037,0.3114,0.311,0.3106,0.3103,0.31,0,0.1779,0.1794,0.1882,0.1919,0.1967,0.2067,0.2135,0.2303,0.2393,0.258,0.2625,0.2771,0.2843,0.2958,0.299,0.3028,0.3097,0.2842,0.2823,0.3052,0.3035,0.3028,0.302,0.2641,0.2635,0.263,0.2626,0,0.1767,0.1794,0.1829,0.189,0.1956,0.2033,0.2132,0.2181,0.2342,0.242,0.2505,0.2581,0.2695,0.268,0.2713,0.2712,0.2838,0.2735,0.3089,0.2711,0.2604,0.2587,0.2596,0.258,0.2585,0.2588,0.2591,0.2592,0.1762,0.1771,0.1806,0.1855,0.1932,0.1972,0.197,0.204,0.2102,0.2163,0.229,0.2326,0.243,0.2411,0.2358,0.2351,0.2545,0.2488,0.2506,0.2529,0.2445,0.2335,0.2242,0.2244,0.2247,0.2249,0.225,0,0.1732,0.1745,0.1772,0.1825,0.1841,0.1923,0.1939,0.1896,0.1862,0.1963,0.2001,0.1901,0.1923,0.2022,0.1958,0.1982,0.2002,0.1908,0.1931,0.1977,0.2018,0.191,0.1565,0.1562,0.156,0.1558,0,0,0.1728,0.1704,0.1684,0.1683,0.1748,0.1702,0.1673,0.161,0.1624,0.1589,0.1615,0.1797,0.1952,0.1704,0.17,0.1619,0.1779,0.1566,0.2123,0.2194,0.2232,0.2367,0.2254,0,0,0,0,0]},{"header":{"parameterUnit":"m.s-1","parameterCategory":2,"la1":30.2991,"la2":30.254,"lo1":-89.0895,"lo2":-89.0444,"dy":0.0017,"dx":0.0017,"nx":28,"ny":28,"refTime":"2025-02-28T03:00:00:Z","depth":"2","parameterNumber":3,"parameterNumberName":"V-component_of_CURRENTS"},"data":[0,0,0,0,0,0,0,0,0,0,0,0,0,0,0,0,0,0,0,0,0,0,0,0,0,0,0,0,0,0,0,0,0,0,0,0,0,0,0,0,0,0,0,0,0,0,0,0,0,0,0,0,0,0,0,0,0,0,0.0179,0.0179,0,0.0172,0.0171,0.0171,0.0142,0.0142,0.0142,0.0141,0.0012,0.0009,0.0005,0,0,0,0,0,0,0,0,0,0,0,0,0,0.0166,0.0167,0.0179,0.0179,0.0179,0.0172,0.0171,0.0171,0.0142,0.0142,0.0142,0.0141,0.0013,0.0009,0.0005,0,0,0,0,0,0,0,0,0,0,0,0,0,0.0164,0.0167,0.0179,0.0167,0.0166,0.0172,0.0171,0.0171,0.0143,0.0142,0.0142,0.0141,0.0014,0.0009,0.0005,-0.0014,0,0,-0.001,-0.0012,0,0,0,0,0,0,0,0,0.0164,0.0164,0.0168,0.0168,0.0167,0.016,0.012,0.0104,0.0143,0.0148,0.0141,0.0141,0.0053,0.0045,0.0041,-0.002,-0.0026,-0.001,-0.0013,-0.0015,-0.0016,0,0,0,0,0,0,0,0.0164,0.0164,0.0172,0.0169,0.0168,0.0161,0.016,0.0117,0.0098,0.0147,0.0146,0.0151,0.0051,0.0046,0.0038,-0.0028,-0.001,-0.0014,-0.0017,-0.0019,-0.0104,-0.0103,0,0,0,0,0,0,0.0173,0.0164,0.0173,0.0173,0.0168,0.0162,0.0161,0.016,0.0101,0.0094,0.0151,0.015,0.0054,0.0043,0.0033,0.0003,-0.0015,-0.0019,-0.0022,-0.0104,-0.0104,-0.0103,0,0,0,0,0,0,0.0172,0.0173,0.0173,0.0171,0.0171,0.0163,0.0163,0.016,0.0155,0.0106,0.0096,0.0149,0.0054,0.004,-0.0005,-0.0002,-0.0022,-0.0026,-0.0105,-0.0104,-0.0103,-0.0054,0,0,0,0,0,0,0.0172,0.0173,0.0175,0.0172,0.0172,0.0177,0.0164,0.0161,0.016,0.0158,0.0101,0.0088,0.0052,0.0002,-0.001,-0.0009,-0.0029,-0.0106,-0.0105,-0.0104,-0.0057,-0.0052,-0.0048,0,0,0,0,0,0.0171,0.0185,0.0175,0.0177,0.0175,0.0178,0.0177,0.0167,0.0161,0.016,0.0122,0.009,0.0001,-0.0001,-0.0016,-0.0016,-0.0106,-0.0105,-0.0104,-0.0059,-0.0053,-0.0048,0,0,0,0,0,0,0.0189,0.0184,0.0173,0.0186,0.018,0.0174,0.0179,0.0171,0.0143,0.0138,0.0087,0.0072,0.0037,0.0006,0.0005,-0.0034,-0.0054,-0.0055,-0.0015,-0.001,-0.0005,0.0022,-0.0033,0,0,0,0,0,0.0192,0.02,0.0189,0.0202,0.0196,0.0185,0.0186,0.018,0.0159,0.0147,0.0109,0.0069,0.0033,0.0008,-0.0029,-0.0058,-0.0072,-0.0063,-0.0058,-0.0054,-0.004,-0.0055,-0.005,-0.0099,-0.0099,-0.0099,0,0,0.0205,0.0205,0.0209,0.0205,0.0198,0.0203,0.0184,0.0189,0.0192,0.0135,0.0118,0.0078,0.0029,0.0001,-0.0017,-0.0027,-0.0048,-0.0053,-0.0049,-0.0037,-0.0053,-0.0048,-0.0044,-0.0098,-0.0098,-0.0098,0,0,0.024,0.0228,0.0241,0.0237,0.0233,0.0223,0.0225,0.0212,0.02,0.0178,0.0144,0.0112,0.005,0.0027,0.0004,0.0012,-0.0024,-0.0004,0.0035,0.0021,0.0025,0.0028,0.0015,0.0017,-0.0002,-0.0002,-0.0002,0,0.0253,0.0269,0.0247,0.0258,0.0265,0.0234,0.025,0.0234,0.0211,0.0209,0.0177,0.0119,0.0068,0.0053,0.005,0.0022,0.0007,0.0017,0.0027,0.003,0.0033,0.0018,0.002,0.0001,0.0,0.0,-0.0,0,0.0296,0.0305,0.0315,0.0314,0.0313,0.0325,0.03,0.029,0.0266,0.0258,0.0233,0.017,0.0142,0.0117,0.0076,0.0076,0.0057,0.0034,0.0015,0.0041,0.0023,0.0024,0.0004,0.0003,0.0003,0.0002,0,0,0.0333,0.0342,0.0345,0.0356,0.0346,0.0352,0.0347,0.0345,0.0362,0.0313,0.0335,0.0256,0.0234,0.0208,0.0159,0.0137,0.0126,0.0093,0.0091,0.0083,0.0095,0.0023,0.0016,0.0102,0.0102,0.0103,0.0074,0,0.0371,0.0411,0.0402,0.0435,0.0448,0.0421,0.0425,0.0417,0.0403,0.0412,0.0354,0.0353,0.0266,0.026,0.0218,0.0164,0.0131,0.0136,0.0069,0.0067,0.0002,0.0015,0.0027,-0.0002,0.0075,0.0075,0.0075,0,0.0411,0.0435,0.0475,0.0497,0.05,0.0512,0.0525,0.053,0.0527,0.0521,0.0504,0.0469,0.0435,0.0358,0.0265,0.0272,0.0185,0.0129,0.0126,0.0045,-0.0004,-0.0016,-0.0005,0.0075,0.0075,0.0075,0.0075,0,0.045,0.0484,0.0522,0.053,0.0546,0.0556,0.0562,0.0566,0.0598,0.061,0.0641,0.0583,0.0575,0.0465,0.0312,0.0302,0.0204,0.0182,0.0034,0.0028,0.0019,0.0011,0.011,0.011,0.011,0.011,0.011,0,0.0495,0.0523,0.0544,0.0567,0.0616,0.0605,0.0665,0.0663,0.0703,0.076,0.0707,0.0733,0.06,0.0516,0.0364,0.0193,0.0238,0.0047,0.0017,0.0034,0.0028,0.008,0.0077,0.0109,0.0109,0.0109,0.011,0,0.0525,0.054,0.0588,0.0621,0.0636,0.067,0.0738,0.0791,0.0812,0.0887,0.0903,0.0871,0.0755,0.0584,0.0418,0.0273,0.0113,0.0028,0.0051,0.0022,-0.0059,-0.0059,-0.0094,-0.0096,-0.0099,-0.0101,-0.0102,0,0.0542,0.0571,0.0632,0.0674,0.0692,0.0751,0.0801,0.0841,0.0918,0.096,0.1012,0.0933,0.0873,0.0599,0.0334,0.0073,0.0045,-0.0079,-0.0104,-0.0053,-0.0079,-0.0075,-0.0072,-0.0089,-0.0091,-0.0092,-0.0093,0,0.0579,0.06,0.0646,0.0735,0.0797,0.0883,0.0964,0.1042,0.1092,0.1136,0.1174,0.1127,0.0858,0.0601,0.0235,0.0059,-0.0032,-0.0112,-0.0047,-0.0056,-0.0056,-0.008,-0.0075,-0.0103,-0.0102,-0.0101,-0.01,-0.01,0.0608,0.0653,0.0721,0.0807,0.0893,0.1013,0.1088,0.1172,0.1267,0.132,0.1268,0.1177,0.0911,0.043,0.0141,-0.0147,-0.0135,-0.0217,-0.021,-0.0202,-0.0213,-0.0219,-0.0298,-0.0298,-0.0298,-0.0298,-0.0298,0,0.0651,0.0715,0.0795,0.0912,0.1015,0.1059,0.1201,0.1267,0.136,0.136,0.1341,0.1049,0.0753,0.0446,0.0004,-0.0252,-0.024,-0.032,-0.0241,-0.0231,-0.0222,-0.023,-0.0321,-0.0321,-0.0322,-0.0322,0,0,0.0682,0.0768,0.0815,0.0994,0.1092,0.1237,0.1322,0.1377,0.1405,0.138,0.1303,0.1187,0.0825,0.0508,0.0156,-0.0081,-0.0088,-0.0124,-0.0085,0.0059,0.0072,-0.0151,-0.0152,0,0,0,0,0]}],[{"header":{"parameterUnit":"m.s-1","parameterCategory":2,"la1":30.2991,"la2":30.254,"lo1":-89.0895,"lo2":-89.0444,"dy":0.0017,"dx":0.0017,"nx":28,"ny":28,"refTime":"2025-02-28T03:00:00:Z","depth":"4","parameterNumber":2,"parameterNumberName":"U-component_of_CURRENTS"},"data":[0,0,0,0,0,0,0,0,0,0,0,0,0,0,0,0,0,0,0,0,0,0,0,0,0,0,0,0,0,0,0,0,0,0,0,0,0,0,0,0,0,0,0,0,0,0,0,0,0,0,0,0,0,0,0,0,0,0,0.1014,0.1014,0,0.1026,0.1026,0.1026,0.1047,0.1048,0.1049,0.105,0.1052,0.1051,0.105,0,0,0,0,0,0,0,0,0,0,0,0,0,0.0982,0.0982,0.1014,0.1014,0.1015,0.1026,0.1026,0.1026,0.1047,0.1048,0.1049,0.105,0.1052,0.1051,0.105,0,0,0,0,0,0,0,0,0,0,0,0,0,0.0991,0.0982,0.1014,0.103,0.1032,0.1026,0.1026,0.1026,0.1047,0.1048,0.1049,0.105,0.1052,0.1051,0.105,0.102,0,0,0.1047,0.1046,0,0,0,0,0,0,0,0,0.0991,0.0992,0.1027,0.1029,0.1031,0.104,0.1016,0.1025,0.1047,0.1037,0.105,0.1051,0.1049,0.1048,0.1042,0.102,0.102,0.1047,0.1046,0.1046,0.1045,0,0,0,0,0,0,0,0.099,0.0991,0.1014,0.1028,0.103,0.1028,0.1031,0.1017,0.1032,0.1038,0.104,0.1048,0.1049,0.1043,0.1042,0.102,0.1047,0.1046,0.1045,0.1045,0.1078,0.1079,0,0,0,0,0,0,0.0997,0.0991,0.1014,0.1015,0.1018,0.1028,0.1031,0.1033,0.1033,0.1035,0.1047,0.1049,0.1044,0.1043,0.1042,0.1052,0.1046,0.1045,0.1044,0.1076,0.1078,0.108,0,0,0,0,0,0,0.0996,0.0999,0.1014,0.1007,0.1009,0.1028,0.103,0.1032,0.1053,0.1041,0.1043,0.1069,0.1045,0.1044,0.1051,0.1051,0.1044,0.1043,0.1075,0.1077,0.1079,0.1042,0,0,0,0,0,0,0.0995,0.0998,0.1008,0.1007,0.101,0.1024,0.1029,0.1032,0.1056,0.1059,0.1059,0.1059,0.1046,0.1052,0.105,0.1049,0.1042,0.1073,0.1076,0.1078,0.1042,0.1043,0.1044,0,0,0,0,0,0.0994,0.0998,0.1008,0.1012,0.1021,0.1025,0.1025,0.104,0.1056,0.1063,0.1067,0.1061,0.107,0.1052,0.1048,0.1048,0.1071,0.1075,0.1078,0.1041,0.1043,0.1044,0,0,0,0,0,0,0.0984,0.1001,0.1012,0.1021,0.1031,0.103,0.1042,0.1053,0.106,0.1075,0.1062,0.1062,0.1076,0.1076,0.1057,0.1074,0.1076,0.1079,0.105,0.1051,0.1052,0.113,0.1042,0,0,0,0,0,0.0988,0.1002,0.1012,0.1022,0.1031,0.1042,0.105,0.1063,0.1068,0.1075,0.1078,0.1087,0.1082,0.1078,0.1086,0.1076,0.1103,0.1085,0.1086,0.1087,0.1153,0.1176,0.1185,0.1091,0.1091,0.1091,0,0,0.0989,0.1001,0.1009,0.1023,0.1034,0.1044,0.1049,0.1072,0.1084,0.1072,0.1096,0.1095,0.1088,0.1085,0.1092,0.1083,0.1118,0.1091,0.1091,0.1159,0.118,0.1189,0.1197,0.1093,0.1093,0.1092,0,0,0.0987,0.1008,0.1016,0.1028,0.1055,0.1063,0.1077,0.1094,0.1108,0.1127,0.1121,0.1148,0.1131,0.1134,0.1127,0.1151,0.1133,0.1129,0.1178,0.1196,0.1204,0.1211,0.1205,0.1212,0.1116,0.1116,0.1116,0,0.0991,0.1,0.1019,0.1029,0.1049,0.1075,0.1091,0.1098,0.112,0.1136,0.1147,0.1177,0.1174,0.1169,0.1182,0.1157,0.1147,0.1153,0.1196,0.1204,0.1212,0.1205,0.1214,0.1115,0.1115,0.1115,0.1115,0,0.099,0.1005,0.1013,0.1039,0.1061,0.1081,0.1104,0.113,0.1164,0.1178,0.1218,0.1225,0.1253,0.1233,0.1215,0.1253,0.1216,0.1195,0.1183,0.1219,0.1209,0.1218,0.1113,0.1113,0.1113,0.1114,0,0,0.0971,0.1006,0.1011,0.103,0.1075,0.109,0.1123,0.1156,0.1189,0.1226,0.127,0.129,0.1319,0.1324,0.1293,0.1316,0.1344,0.1281,0.1282,0.1262,0.1353,0.1298,0.1303,0.1296,0.1299,0.1301,0.1301,0,0.0967,0.0988,0.1013,0.1046,0.1062,0.1108,0.1134,0.1175,0.1219,0.1264,0.1299,0.1338,0.1333,0.1349,0.1372,0.1365,0.1377,0.1347,0.1338,0.134,0.1275,0.1317,0.131,0.1308,0.131,0.1312,0.1313,0,0.0952,0.0973,0.1003,0.1057,0.1071,0.1102,0.1178,0.1206,0.1268,0.1308,0.1368,0.1392,0.1451,0.1443,0.1483,0.1446,0.1429,0.142,0.1417,0.1411,0.1306,0.1282,0.1331,0.1329,0.1328,0.1327,0.1326,0,0.0923,0.0966,0.0996,0.1014,0.1075,0.1113,0.1158,0.1227,0.1266,0.1351,0.1406,0.1457,0.1509,0.1517,0.1535,0.1497,0.157,0.15,0.1432,0.1425,0.1486,0.1479,0.1549,0.1549,0.1549,0.1549,0.1549,0,0.0897,0.092,0.0991,0.1003,0.105,0.1112,0.1175,0.1223,0.1314,0.1364,0.1436,0.1487,0.1538,0.1575,0.1559,0.1546,0.1588,0.1488,0.1445,0.1462,0.1453,0.1488,0.1481,0.1549,0.1549,0.1549,0.1549,0,0.0848,0.0891,0.0924,0.1002,0.1031,0.107,0.1178,0.122,0.1322,0.1397,0.1435,0.1531,0.158,0.1613,0.1633,0.1581,0.1569,0.1545,0.1579,0.1529,0.1392,0.1383,0.1457,0.1456,0.1455,0.1454,0.1453,0,0.0819,0.0833,0.0913,0.0935,0.0973,0.1046,0.1089,0.1203,0.1256,0.1405,0.143,0.1533,0.1578,0.1569,0.1603,0.1581,0.1557,0.1532,0.1474,0.1445,0.1394,0.1387,0.138,0.1451,0.1451,0.145,0.145,0,0.0761,0.08,0.0831,0.0877,0.0927,0.0975,0.1056,0.1095,0.1226,0.1334,0.1404,0.1445,0.1501,0.1519,0.1538,0.1509,0.1544,0.1518,0.1519,0.1464,0.1437,0.1387,0.1381,0.1446,0.1447,0.1447,0.1447,0,0.0719,0.0728,0.0773,0.0809,0.086,0.0889,0.0945,0.1021,0.1094,0.1273,0.1286,0.1392,0.1483,0.1482,0.1489,0.1485,0.1439,0.1372,0.1379,0.1384,0.1366,0.1322,0.1293,0,0,0,0,0,0.067,0.0673,0.0699,0.073,0.0779,0.0811,0.0911,0.0977,0.1116,0.1136,0.1218,0.1266,0.1315,0.1364,0.1339,0.1435,0.143,0.1399,0.1353,0.1423,0.1428,0.1415,0,0,0,0,0,0,0.0635,0.0655,0.067,0.0657,0.0668,0.0714,0.0775,0.087,0.0897,0.1043,0.1074,0.1185,0.1242,0.1308,0.131,0.1325,0.1271,0.1469,0.1466,0.142,0.1425,0.1428,0.1417,0,0,0,0,0]},{"header":{"parameterUnit":"m.s-1","parameterCategory":2,"la1":30.2991,"la2":30.254,"lo1":-89.0895,"lo2":-89.0444,"dy":0.0017,"dx":0.0017,"nx":28,"ny":28,"refTime":"2025-02-28T03:00:00:Z","depth":"4","parameterNumber":3,"parameterNumberName":"V-component_of_CURRENTS"},"data":[0,0,0,0,0,0,0,0,0,0,0,0,0,0,0,0,0,0,0,0,0,0,0,0,0,0,0,0,0,0,0,0,0,0,0,0,0,0,0,0,0,0,0,0,0,0,0,0,0,0,0,0,0,0,0,0,0,0,0.0207,0.0207,0,0.02,0.02,0.02,0.0204,0.0204,0.0205,0.0205,0.0163,0.0162,0.0161,0,0,0,0,0,0,0,0,0,0,0,0,0,0.0183,0.0184,0.0207,0.0207,0.0207,0.02,0.02,0.02,0.0204,0.0204,0.0205,0.0205,0.0164,0.0162,0.016,0,0,0,0,0,0,0,0,0,0,0,0,0,0.0185,0.0184,0.0207,0.021,0.021,0.02,0.02,0.02,0.0204,0.0204,0.0205,0.0205,0.0164,0.0162,0.016,0.0136,0,0,0.0154,0.0153,0,0,0,0,0,0,0,0,0.0185,0.0186,0.0209,0.021,0.021,0.0205,0.0176,0.0177,0.0204,0.0205,0.0205,0.0206,0.0175,0.0172,0.0167,0.0135,0.0133,0.0153,0.0152,0.0151,0.0151,0,0,0,0,0,0,0,0.0185,0.0186,0.0203,0.021,0.021,0.0197,0.0198,0.0176,0.0185,0.0205,0.0205,0.0207,0.0174,0.017,0.0166,0.0132,0.0154,0.0152,0.015,0.0149,0.008,0.0079,0,0,0,0,0,0,0.0191,0.0186,0.0203,0.0203,0.02,0.0197,0.0199,0.0205,0.0186,0.0184,0.0206,0.0207,0.0173,0.0169,0.0165,0.0148,0.0151,0.0149,0.0148,0.008,0.008,0.0079,0,0,0,0,0,0,0.0191,0.0193,0.0204,0.0195,0.0196,0.0198,0.0204,0.0204,0.0207,0.0188,0.0185,0.021,0.0173,0.0168,0.0153,0.0146,0.0148,0.0146,0.0081,0.008,0.008,0.0106,0,0,0,0,0,0,0.019,0.0193,0.0201,0.0196,0.0197,0.0204,0.0204,0.0204,0.0207,0.0208,0.019,0.0187,0.0173,0.0157,0.0151,0.0143,0.0145,0.0082,0.0081,0.008,0.0106,0.0106,0.0106,0,0,0,0,0,0.0189,0.0202,0.0201,0.0203,0.0208,0.0204,0.0203,0.0205,0.0207,0.0209,0.0198,0.0187,0.0146,0.0155,0.0149,0.0139,0.0082,0.0081,0.008,0.0105,0.0106,0.0106,0,0,0,0,0,0,0.0197,0.0204,0.0203,0.0217,0.0213,0.0206,0.021,0.0208,0.02,0.0203,0.0184,0.018,0.0164,0.0145,0.0156,0.0114,0.011,0.0108,0.0132,0.0132,0.0132,0.0144,0.0143,0,0,0,0,0,0.0202,0.0214,0.0211,0.0222,0.0221,0.0215,0.0215,0.0214,0.0206,0.0204,0.0192,0.0172,0.0151,0.0139,0.012,0.0098,0.007,0.0085,0.0085,0.0086,0.009,0.0038,0.0034,0.0075,0.0075,0.0075,0,0,0.0208,0.0214,0.022,0.0224,0.0221,0.0224,0.0216,0.0219,0.0219,0.0199,0.0197,0.0176,0.0146,0.0126,0.0115,0.0111,0.0058,0.0084,0.0085,0.0089,0.0036,0.0032,0.0028,0.0074,0.0074,0.0075,0,0,0.0225,0.023,0.0243,0.0242,0.0242,0.0235,0.0237,0.0231,0.0227,0.0219,0.0202,0.018,0.0152,0.0127,0.011,0.0097,0.0065,0.0087,0.0094,0.0044,0.004,0.0037,-0.0005,-0.0013,0.0083,0.0083,0.0083,0,0.0232,0.025,0.0245,0.0255,0.0258,0.0242,0.0252,0.0241,0.0231,0.0224,0.0224,0.0174,0.0152,0.0116,0.0114,0.0099,0.0067,0.0099,0.0045,0.0041,0.0037,-0.0006,-0.0014,0.0084,0.0084,0.0084,0.0084,0,0.0255,0.0269,0.0276,0.0284,0.0283,0.0289,0.0275,0.027,0.0262,0.0249,0.0221,0.0186,0.0157,0.0139,0.0125,0.0081,0.0067,0.0056,0.0048,0.0034,-0.001,-0.0019,0.0086,0.0086,0.0085,0.0085,0,0,0.0271,0.029,0.0293,0.0304,0.0301,0.0304,0.0298,0.0287,0.0285,0.0258,0.0246,0.02,0.018,0.0159,0.0127,0.0081,0.0025,0.0059,0.0056,0.0024,-0.0085,-0.007,-0.0079,0.0003,0.0001,0.0,-0.0105,0,0.0291,0.032,0.0321,0.0343,0.0355,0.034,0.0337,0.0322,0.0305,0.0287,0.0235,0.0215,0.0186,0.0174,0.0121,0.0051,0.0002,0.0055,-0.0073,-0.0077,-0.0056,-0.0089,-0.0005,-0.0112,-0.0114,-0.0116,-0.0117,0,0.031,0.033,0.036,0.0377,0.0381,0.039,0.0385,0.038,0.0342,0.0329,0.0289,0.0253,0.0184,0.0166,0.0031,0.0066,-0.0004,-0.0061,-0.0067,-0.0067,-0.0079,-0.0097,-0.0134,-0.0133,-0.0131,-0.013,-0.0129,0,0.0326,0.0355,0.0383,0.039,0.0404,0.0414,0.0417,0.0395,0.0398,0.0356,0.0353,0.0263,0.0225,0.0119,0.0008,0.0014,-0.0141,-0.015,-0.0204,-0.0204,-0.0196,-0.0191,-0.0245,-0.0244,-0.0244,-0.0244,-0.0244,0,0.0344,0.0365,0.0398,0.0414,0.0445,0.0443,0.0467,0.0453,0.0442,0.0444,0.0379,0.0355,0.0211,0.0112,0.0006,-0.0128,-0.0148,-0.0208,-0.0233,-0.0183,-0.0176,-0.0203,-0.0197,-0.0248,-0.0247,-0.0246,-0.0245,0,0.0351,0.0372,0.0409,0.0442,0.0456,0.0477,0.0513,0.0526,0.0511,0.051,0.0501,0.0409,0.0278,0.0136,-0.0043,-0.0121,-0.0254,-0.0293,-0.0227,-0.0245,-0.0284,-0.0275,-0.0372,-0.0372,-0.0373,-0.0373,-0.0373,0,0.0355,0.0378,0.0433,0.0461,0.0481,0.052,0.0547,0.0557,0.0575,0.0543,0.054,0.0428,0.0351,0.0112,-0.0045,-0.0253,-0.0273,-0.0341,-0.0315,-0.0284,-0.0299,-0.0289,-0.0281,-0.0374,-0.0374,-0.0374,-0.0374,0,0.0363,0.0387,0.0418,0.048,0.0524,0.0572,0.0613,0.0635,0.0639,0.0631,0.0576,0.0457,0.0309,0.0119,-0.004,-0.0188,-0.0299,-0.0345,-0.0345,-0.0322,-0.0287,-0.03,-0.029,-0.0375,-0.0375,-0.0375,-0.0375,0,0.0366,0.0392,0.0439,0.0492,0.0548,0.0602,0.0629,0.0651,0.0667,0.0642,0.0616,0.0465,0.037,0.0152,0.0,-0.0141,-0.0175,-0.0211,-0.0219,-0.022,-0.014,-0.0071,-0.012,0,0,0,0,0,0.0366,0.0398,0.0448,0.0508,0.0564,0.0602,0.0658,0.0682,0.0695,0.0669,0.065,0.0518,0.0296,0.019,0.0051,-0.0017,-0.0209,-0.0185,-0.0257,-0.0382,-0.038,-0.031,0,0,0,0,0,0,0.0366,0.0411,0.0443,0.0509,0.0555,0.0621,0.0663,0.0679,0.0667,0.0657,0.054,0.0488,0.0267,0.0375,0.0049,0.0004,-0.0059,-0.029,-0.0293,-0.0383,-0.0381,-0.038,-0.0308,0,0,0,0,0]}]]